Showing default

LARETS, 27944

Orbit data source: Space-Track

LARETS, 27944 is a payload satellite owned by NII KP (CIS) in SSO that was launched on Sat, 27 Sep 2003 UTC via a KOSMOS 11K65M launch vehicle from the Plesetsk Missile And Space Complex (PKMTR). Payload-class satellites include a variety of spacecraft equipped with specific instruments for various scientific and technological missions. These include communications satellites like Starlink; space stations such as the ISS; scientific satellites like the Hubble; Earth observation satellites from companies like Planet Labs, Umbra, and HawkEye 360; GPS; miniature CubeSats for education and research; and military/defense satellites.

Loading next visibility...
Identifier
27944, 2003-042F
Orbit
SSO
Last TLE update
3 hours ago
Origin
Manufacturer
NII KP
Mission
Operational Defense Calibration
Bus & Motor
Unknown
Mass
~10 kg wet, ~10 kg dry
Launch date (UTC)
2003-09-27 (22 years ago)
Launch vehicle
KOSMOS 11K65M
Launch site
Plesetsk Missile And Space Complex (PKMTR)
Object type
Payload
Rocket body
Debris
Shape & HBR
Sphere, 0.2 m
Radar Cross Section
0.031 m², Medium (>0.1 m² and < 1m²)

Expand to show TLE details & history

TLE from 3 hours ago
0 LARETS
1 27944U 03042F   25129.20436614  .00000104  00000-0  29451-4 0  9990
2 27944  98.3628 279.1883 0011584 212.2754 147.7740 14.63753819154348
Epoch: 2025-05-09T04:54Z
Definitive object data (Epoch: 2025-05-09T04:54:17.234Z)
Latitude
-0.00002°
Longitude
-21.64737°
Altitude
690.986 km
Speed
7.507 km/s
True Right ascension
18h 36m 45s
True Declination
0° 00' 00"
Sunlit
Object was in full shadow at TLE epoch
Visualization TLE readout
Latitude
26.89694°
Longitude
-25.7569°
Altitude
692.567 km
Speed
7.508 km/s
Apparent Right ascension
21h 37m 22s
Apparent Declination
-16° 15' 29"
Sunlit
Object is in partial shadow
Visualization observer readout
Local Sidereal Time
16:27:42
Azimuth
110.428° ESE
Elevation
-1.1°
Doppler factor
1
Orbital elements
Apogee altitude
686.337 km
Perigee altitude
669.989 km
Semi-major axis
7,056.3 km
Eccentricity
0.0011584
Inclination
98.3628°
RAAN
279.1883°
Arg. of periapsis
212.2754°
True anomaly
147.8447°
Mean anomaly
147.774°
Eccentric anomaly
147.80936°
Mean motion
3.66166 °/min
BSTAR
0.000029451
Orbital period
98.32 mins
Loading maneuver chart data...
Loading SW <> Apogee altitude chart data...
Loading historical data...
Loading historical data...
Loading historical data...
Loading historical data...
Loading historical data...
Loading historical data...
Loading historical data...

LARETS Visibility forecast

Observer location: undefined°, undefined°

Span
Click to sort rows by Start time (UTC) header in descending order
Start Az.
Max El. time (UTC)
Max El. Az.
Max El.
End time (UTC)
End Az.
8 mins2025-05-09 09:56:34.265Z166.111° S2025-05-09 10:00:34.265Z193.496° SSW44.969°2025-05-09 10:04:34.265Z346.485° N
5 mins2025-05-09 21:55:34.265Z64.308° ENE2025-05-09 21:57:34.265Z99.235° ESE20.031°2025-05-09 22:00:34.265Z142.282° SSE
7 mins2025-05-09 23:31:34.265Z348.265° N2025-05-09 23:34:34.265Z293.216° NW30.153°2025-05-09 23:38:34.265Z226.225° WSW
|